FW9733 Weather Reports


Display with metric or nautical units.
time (UTC)temp
F
wind
direction
speed
MPH
gust
MPH
rain 1hr
in
rain 24hr
in
rain mn
in
humidity
%
barometer
mb
20260903033112 52 0 0.0 2.0 0.00 0.00 0.00 42 1023.0
20260903031557 53 0 0.0 1.0 0.00 0.00 0.00 44 1022.9
20260903024557 55 0 0.0 2.0 0.00 0.00 0.00 44 1022.9
20260903023055 56 0 0.0 1.0 0.00 0.00 0.00 45 1023.1
20260903021608 57 0 0.0 1.0 0.00 0.00 0.00 42 1023.1
20260903020055 58 0 0.0 2.0 0.00 0.00 0.00 39 1023.3
20260903014552 59 0 0.0 3.0 0.00 0.00 0.00 36 1023.2
20260903013105 61 54 0.0 4.0 0.00 0.00 0.00 33 1023.2
20260903011604 62 0 1.0 3.0 0.00 0.00 0.00 29 1023.1
20260903010114 64 23 0.0 3.0 0.00 0.00 0.00 26 1023.3
20260903004601 64 132 0.0 4.0 0.00 0.00 0.00 27 1023.3
20260903003110 65 146 1.0 3.0 0.00 0.00 0.00 24 1023.2
20260903001553 65 199 0.0 5.0 0.00 0.00 0.00 22 1023.2
20260903000107 66 153 1.0 5.0 0.00 0.00 0.00 21 1023.2
20260902234600 67 125 0.0 6.0 0.00 0.00 0.00 21 1023.2
20260902233056 67 0 0.0 6.0 0.00 0.00 0.00 19 1023.2
20260902231602 67 226 0.0 5.0 0.00 0.00 0.00 20 1023.2
20260902230059 69 179 0.0 2.0 0.00 0.00 0.00 18 1023.4
20260902224556 69 126 0.0 4.0 0.00 0.00 0.00 17 1023.5
20260902223122 69 155 1.0 6.0 0.00 0.00 0.00 18 1023.8
20260902221618 70 127 2.0 5.0 0.00 0.00 0.00 17 1023.8
20260902220059 70 128 0.0 4.0 0.00 0.00 0.00 15 1023.8
20260902214551 70 183 1.0 4.0 0.00 0.00 0.00 15 1024.0
20260902213103 71 231 1.0 5.0 0.00 0.00 0.00 15 1024.1
20260902211610 73 236 1.0 8.0 0.00 0.00 0.00 14 1024.2
20260902204602 74 0 1.0 6.0 0.00 0.00 0.00 12 1024.1
20260902203058 74 261 0.0 7.0 0.00 0.00 0.00 12 1024.2
20260902201624 75 245 1.0 7.0 0.00 0.00 0.00 11 1024.3
20260902200114 74 154 1.0 4.0 0.00 0.00 0.00 12 1024.5
20260902194600 73 250 1.0 7.0 0.00 0.00 0.00 12 1024.5
20260902193102 73 299 1.0 5.0 0.00 0.00 0.00 12 1024.5
20260902191559 72 302 2.0 11.0 0.00 0.00 0.00 12 1024.6
20260902184553 72 262 0.0 4.0 0.00 0.00 0.00 12 1024.8
20260902183127 71 245 1.0 7.0 0.00 0.00 0.00 13 1024.8
20260902181612 72 0 1.0 4.0 0.00 0.00 0.00 13 1024.7
20260902180100 71 257 1.0 3.0 0.00 0.00 0.00 14 1024.7
20260902174608 70 295 1.0 4.0 0.00 0.00 0.00 15 1024.6
20260902173059 69 314 2.0 4.0 0.00 0.00 0.00 15 1024.6
20260902171609 70 178 2.0 6.0 0.00 0.00 0.00 15 1024.6
20260902170104 69 198 1.0 4.0 0.00 0.00 0.00 17 1024.5
20260902164607 68 243 0.0 3.0 0.00 0.00 0.00 17 1024.4
20260902163055 66 165 0.0 2.0 0.00 0.00 0.00 18 1024.3
20260902161605 65 247 0.0 3.0 0.00 0.00 0.00 19 1024.2
20260902160107 64 20 1.0 6.0 0.00 0.00 0.00 19 1024.2
20260902154612 62 326 0.0 4.0 0.00 0.00 0.00 20 1023.9
20260902153103 61 334 0.0 3.0 0.00 0.00 0.00 22 1023.9
20260902151618 58 0 0.0 3.0 0.00 0.00 0.00 25 1023.8
20260902150059 54 0 0.0 4.0 0.00 0.00 0.00 27 1023.7
20260902144554 51 97 0.0 2.0 0.00 0.00 0.00 32 1023.8
20260902143057 48 0 0.0 1.0 0.00 0.00 0.00 39 1023.6
20260902141557 47 0 1.0 4.0 0.00 0.00 0.00 39 1023.5
20260902140101 45 0 0.0 5.0 0.00 0.00 0.00 43 1023.4
20260902134603 45 70 1.0 3.0 0.00 0.00 0.00 43 1023.4
20260902133104 44 0 1.0 6.0 0.00 0.00 0.00 44 1023.3
20260902131557 45 80 0.0 3.0 0.00 0.00 0.00 42 1023.3
20260902130055 46 0 0.0 3.0 0.00 0.00 0.00 40 1023.2
20260902124603 44 68 0.0 3.0 0.00 0.00 0.00 42 1023.0
20260902123058 43 0 0.0 3.0 0.00 0.00 0.00 43 1022.9
20260902121610 41 77 0.0 3.0 0.00 0.00 0.00 43 1022.9
20260902120057 40 0 0.0 1.0 0.00 0.00 0.00 44 1023.2
20260902114558 41 0 0.0 3.0 0.00 0.00 0.00 43 1023.1
20260902113100 41 0 0.0 3.0 0.00 0.00 0.00 41 1023.1
20260902111600 42 0 0.0 3.0 0.00 0.00 0.00 40 1023.0
20260902110059 41 60 0.0 3.0 0.00 0.00 0.00 40 1023.1
20260902104557 41 86 0.0 4.0 0.00 0.00 0.00 40 1023.2
20260902103108 42 0 1.0 4.0 0.00 0.00 0.00 40 1023.4
20260902101559 42 76 0.0 4.0 0.00 0.00 0.00 41 1023.5
20260902100059 42 78 0.0 1.0 0.00 0.00 0.00 43 1023.5
20260902094600 42 0 0.0 2.0 0.00 0.00 0.00 44 1023.6
20260902093134 41 0 0.0 1.0 0.00 0.00 0.00 45 1023.6
20260902091604 41 0 0.0 1.0 0.00 0.00 0.00 48 1023.6
20260902090100 42 75 0.0 3.0 0.00 0.00 0.00 47 1023.8
20260902084601 42 79 0.0 1.0 0.00 0.00 0.00 50 1023.8
20260902083057 43 74 0.0 1.0 0.00 0.00 0.00 53 1023.9
20260902081613 43 0 0.0 2.0 0.00 0.00 0.00 55 1023.9
20260902080052 44 0 0.0 1.0 0.00 0.00 0.00 58 1023.8
20260902074601 45 0 0.0 1.0 0.00 0.00 0.00 59 1023.7
20260902073058 45 0 0.0 2.0 0.00 0.00 0.00 60 1023.6
20260902071606 46 68 0.0 2.0 0.00 0.00 0.00 60 1023.5
20260902064619 46 0 0.0 1.0 0.00 0.00 0.00 60 1023.8
20260902063057 46 119 1.0 4.0 0.00 0.00 0.00 61 1023.8
20260902061604 46 70 0.0 1.0 0.00 0.00 0.00 61 1023.9
20260902060112 46 96 0.0 1.0 0.00 0.00 0.00 61 1023.9
20260902054559 47 0 0.0 3.0 0.00 0.00 0.00 60 1023.9
20260902053104 47 0 1.0 3.0 0.00 0.00 0.00 61 1024.1
20260902051600 47 0 0.0 1.0 0.00 0.00 0.00 62 1024.3
20260902050110 48 0 0.0 1.0 0.00 0.00 0.00 61 1024.3
20260902044610 49 0 0.0 1.0 0.00 0.00 0.00 61 1024.2
20260902043105 50 0 0.0 1.0 0.00 0.00 0.00 60 1024.3
20260902041559 51 79 0.0 1.0 0.00 0.00 0.00 59 1024.2
20260902040111 52 79 0.0 1.0 0.00 0.00 0.00 58 1024.1
20260902034602 54 0 0.0 3.0 0.00 0.00 0.00 56 1023.7